Terug naar catalogus

FENGYUN 1C DEB

LostPO
NORAD 47008·DEBRIS·🇨🇳 China

Gelanceerd May 10, 1999 vanaf Taiyuan Satellite Launch Center

Loading…

Volgende Passages (komende 24 uur)

TLE

VerouderdSource: Space-Track

Epoch: Sep 11, 2022, 03:37 UTC

1 47008U 99025FAJ 22254.15126759  .00003263  00000-0  15163-2 0  9997
2 47008  98.0569  18.1738 0164720 328.5297  30.6104 14.14311394637384

Volg FENGYUN 1C DEB in realtime met AllMySat

Download on the App Store